This is the latest recevied weather packets stored in our database for station/object K0SDS. If no packets are shown the sender has not sent any weather packets the latest 10 day(s).
| Time | Temp. | Humidity | Pressure | Rain* | Wind** | Luminosity | Snow |
|---|---|---|---|---|---|---|---|
| 1777597632 | 13.33° C | 64% | 1016.5 hPa | 0 mm | - | 4 W/m² | - |
| 1777597328 | 13.33° C | 64% | 1016.7 hPa | 0 mm | - | 6 W/m² | - |
| 1777597023 | 13.89° C | 61% | 1016.5 hPa | 0 mm | - | 10 W/m² | - |
| 1777596721 | 13.89° C | 62% | 1016.4 hPa | 0 mm | - | 14 W/m² | - |
| 1777596417 | 13.89° C | 60% | 1016.4 hPa | 0 mm | - | 17 W/m² | - |
| 1777596114 | 14.44° C | 59% | 1016.5 hPa | 0 mm | - | 21 W/m² | - |
| 1777595810 | 14.44° C | 59% | 1016.4 hPa | 0 mm | - | 25 W/m² | - |
| 1777595506 | 14.44° C | 58% | 1016.4 hPa | 0 mm | - | 32 W/m² | - |
| 1777595202 | 14.44° C | 58% | 1016.4 hPa | 0 mm | - | 34 W/m² | - |
| 1777594898 | 15° C | 59% | 1016.3 hPa | 0 mm | - | 36 W/m² | - |
| 1777594594 | 15° C | 60% | 1016.3 hPa | 0 mm | - | 41 W/m² | - |
| 1777594291 | 15° C | 59% | 1016.3 hPa | 0 mm | - | 42 W/m² | - |
| 1777593987 | 15.56° C | 60% | 1016.4 hPa | 0 mm | - | 46 W/m² | - |
| 1777593683 | 15.56° C | 60% | 1016.2 hPa | 0 mm | - | 57 W/m² | - |
| 1777593380 | 15.56° C | 58% | 1016.3 hPa | 0 mm | - | 59 W/m² | - |
| 1777593079 | 15.56° C | 56% | 1016.2 hPa | 0 mm | - | 60 W/m² | - |
| 1777592778 | 16.11° C | 54% | 1016.3 hPa | 0 mm | - | 63 W/m² | - |
| 1777592474 | 16.11° C | 55% | 1016.2 hPa | 0 mm | - | 75 W/m² | - |
| 1777592169 | 16.11° C | 53% | 1016.2 hPa | 0 mm | - | 90 W/m² | - |
| 1777591866 | 16.11° C | 54% | 1016.2 hPa | 0 mm | - | 123 W/m² | - |
| 1777591562 | 16.67° C | 54% | 1016 hPa | 0 mm | - | 97 W/m² | - |
| 1777591259 | 16.67° C | 56% | 1016.1 hPa | 0 mm | - | 119 W/m² | - |
| 1777590954 | 16.67° C | 56% | 1016 hPa | 0 mm | - | 105 W/m² | - |
| 1777590650 | 17.22° C | 56% | 1015.9 hPa | 0 mm | - | 88 W/m² | - |
| 1777590346 | 17.22° C | 54% | 1015.9 hPa | 0 mm | - | 195 W/m² | - |
* Rain latest hour (hover to see other rain measurements)
** Current wind speed in m/s (hover to see current wind gust speed)